Weather History for Olympia, WA

Change the Weather History Date:

Saturday, November 3, 2012

  Actual Average Record
Temperature  
Mean Temperature 56 °F 46 °F  
Max Temperature 60 °F 54 °F 71 °F (1949)
Min Temperature 52 °F 38 °F 18 °F (2002)
Degree Days  
Heating Degree Days 9 19  
Month to date heating degree days 32 56  
Since 1 July heating degree days 810 850  
Cooling Degree Days 0 0  
Month to date cooling degree days 0 0  
Year to date cooling degree days 82 106  
Growing Degree Days 6 (Base 50)    
Moisture  
Dew Point 54 °F    
Average Humidity 86    
Maximum Humidity 93    
Minimum Humidity 78    
Precipitation  
Precipitation 0.03 in 0.25 in 1.83 in (1983)
Month to date precipitation 1.04 0.73  
Year to date precipitation 41.74 34.64  
Sea Level Pressure  
Sea Level Pressure 30.07 in    
Wind  
Wind Speed 5 mph (SSW)    
Max Wind Speed 16 mph    
Max Gust Speed 22 mph    
Visibility 8 miles    
Events Rain    
T = Trace of Precipitation, MM = Missing Value Source: NWS Daily Summary

Daily Weather History Graph

Daily Weather History Graph

Search for Another Location

Airport:

Trip Planner

Search our weather history database for the weather conditions in past years. The results will help you decide how hot, cold, wet, or windy it might be!

Date:

Astronomy

Nov. 03, 2012 Rise Set
Actual Time 7:58 AM PDT 5:51 PM PDT
Civil Twilight 7:26 AM PDT 6:23 PM PDT
Nautical Twilight 6:49 AM PDT 6:59 PM PDT
Astronomical Twilight 6:14 AM PDT 7:35 PM PDT
Moon 9:31 PM PDT (11/3) 12:12 PM PDT (11/3)
Length of Visible Light 10h 57m
Length of Day
9h 53m
Waning Gibbous, 79% of the Moon is Illuminated
Nov 3
Waning Gibbous
Nov 6
Last Quarter
Nov 13
New
Nov 20
First Quarter
Nov 28
Full

Hourly Weather History & Observations

Time (PDT) Temp. Dew Point Humidity Pressure Visibility Wind Dir Wind Speed Gust Speed Precip Events Conditions
12:54 AM 52.0 °F 52.0 °F 100% 29.98 in 5.0 mi Calm Calm - 0.04 in   Overcast
1:54 AM 53.1 °F 52.0 °F 96% 29.98 in 7.0 mi SSW 3.5 mph - N/A   Overcast
2:30 AM 53.6 °F 51.8 °F 94% 29.97 in 8.0 mi South 3.5 mph - N/A   Overcast
2:54 AM 53.1 °F 52.0 °F 96% 29.98 in 7.0 mi Calm Calm - N/A   Overcast
3:54 AM 53.1 °F 52.0 °F 96% 29.98 in 5.0 mi Calm Calm - N/A   Overcast
4:54 AM 53.1 °F 52.0 °F 96% 30.00 in 9.0 mi Calm Calm - N/A   Overcast
5:54 AM 53.1 °F 52.0 °F 96% 30.00 in 7.0 mi SW 3.5 mph - N/A   Overcast
6:11 AM 53.6 °F 51.8 °F 94% 30.00 in 7.0 mi Calm Calm - N/A   Overcast
6:54 AM 53.1 °F 52.0 °F 96% 30.00 in 7.0 mi SW 3.5 mph - N/A   Overcast
7:41 AM 53.6 °F 51.8 °F 94% 30.02 in 10.0 mi SSW 5.8 mph - N/A   Overcast
7:54 AM 54.0 °F 52.0 °F 93% 30.02 in 10.0 mi SW 6.9 mph - N/A   Overcast
8:54 AM 55.0 °F 52.0 °F 89% 30.03 in 10.0 mi South 9.2 mph - N/A   Overcast
9:54 AM 55.0 °F 53.1 °F 93% 30.04 in 9.0 mi SSW 10.4 mph - N/A   Overcast
10:54 AM 55.9 °F 53.1 °F 90% 30.05 in 9.0 mi South 9.2 mph - N/A   Overcast
11:18 AM 57.2 °F 53.6 °F 88% 30.05 in 9.0 mi South 12.7 mph - N/A   Overcast
11:54 AM 57.0 °F 54.0 °F 89% 30.06 in 9.0 mi SSW 11.5 mph - N/A   Overcast
12:54 PM 59.0 °F 55.0 °F 87% 30.06 in 8.0 mi South 11.5 mph - N/A   Overcast
1:02 PM 59.0 °F 55.4 °F 88% 30.06 in 7.0 mi SSW 11.5 mph - 0.00 in Rain Light Rain
1:54 PM 60.1 °F 54.0 °F 80% 30.06 in 8.0 mi South 11.5 mph - 0.00 in   Overcast
2:54 PM 59.0 °F 54.0 °F 83% 30.07 in 6.0 mi SSW 13.8 mph 21.9 mph 0.00 in Rain Light Rain
3:54 PM 57.0 °F 55.0 °F 93% 30.11 in 4.0 mi SW 6.9 mph - 0.02 in Rain Light Rain
4:09 PM 57.2 °F 55.4 °F 94% 30.11 in 5.0 mi SW 8.1 mph - 0.01 in Rain Light Rain
4:54 PM 57.0 °F 55.9 °F 96% 30.12 in 8.0 mi SSW 8.1 mph - 0.01 in   Mostly Cloudy
5:22 PM 57.2 °F 55.4 °F 94% 30.13 in 8.0 mi West 3.5 mph - N/A   Overcast
5:54 PM 57.0 °F 55.9 °F 96% 30.14 in 8.0 mi WSW 3.5 mph - N/A   Mostly Cloudy
6:54 PM 57.0 °F 55.0 °F 93% 30.15 in 9.0 mi Calm Calm - 0.00 in   Overcast
7:54 PM 55.9 °F 54.0 °F 93% 30.16 in 10.0 mi South 4.6 mph - 0.00 in   Overcast
8:47 PM 55.4 °F 53.6 °F 94% 30.15 in 9.0 mi Calm Calm - N/A   Overcast
8:54 PM 55.9 °F 54.0 °F 93% 30.15 in 9.0 mi Calm Calm - N/A   Overcast
9:54 PM 55.0 °F 54.0 °F 96% 30.16 in 8.0 mi Calm Calm - N/A   Overcast
10:08 PM 55.4 °F 53.6 °F 94% 30.16 in 6.0 mi Calm Calm - N/A   Overcast
10:23 PM 55.4 °F 53.6 °F 94% 30.17 in 8.0 mi West 3.5 mph - N/A   Overcast
10:54 PM 55.0 °F 54.0 °F 96% 30.17 in 8.0 mi Calm Calm - N/A   Overcast
11:54 PM 55.0 °F 54.0 °F 96% 30.18 in 5.0 mi Calm Calm - N/A   Overcast